User: anonymous   Login
Location: Mount Tamalpais State Park
(37.9108°N, 122.6128°W)
Time: 01:30:51
(UTC-07:00)
Language:

Cosmos 1814 Rocket - Orbit

View from above orbital plane
View from above orbital plane
View from above satellite
View from above satellite

Ground track
Ground track

The orbit data is extracted from the following two-line orbital elements,

1 17304U 87006B   14298.95307323  .00000474  00000-0  16673-3 0  2637
2 17304 074.0609 064.5618 0028998 146.5851 347.2944 14.37366485454608
Epoch (UTC): 25 October 2014 22:52:25
Eccentricity: 0.0028998
inclination: 74.0609°
perigee height: 746 km
apogee height: 788 km
right ascension of ascending node: 64.5618°
argument of perigee: 146.5851°
revolutions per day: 14.37366485
mean anomaly at epoch: 347.2944°
orbit number at epoch: 45460

The dashed part of the orbit path shows where the satellite is in the earth's shadow,  

DLR